Flag for U.S.A. Weather past 2 weeks in Prescott, Arizona, U.S.A.

Now
46 °F

Clear.


Feels Like: 41 °F
Forecast: 38 / 72 °F
Wind: 9 mph from Northwest

Location: Love Field

Current Time: Apr 26, 2015 at 10:37:22 PM

Latest Report: Apr 26, 2015 at 9:53 PM


Visibility: 10 mi

Pressure: 29.87 "Hg

Humidity: 50%

Dew point: 28 °F

Location of PrescottLocation

Historic Weather in Prescott — Graph

°F

Prescott temperature yesterday

Maximum temperature yesterday: 55 °F (at 3:53 PM)
Minimum temperature yesterday: 40 °F (at 11:53 PM)
Average temperature yesterday: 49 °F

Past Weeks' High & Low Weather Summary

 TemperatureHumidityPressure
High77 °F (Apr 13, 1:53 PM)96% (Apr 24, 2:53 PM)30.14 "Hg (Apr 24, 2:53 PM)
Low29 °F (Apr 16, 3:53 AM)6% (Apr 15, 3:53 PM)29.65 "Hg (Apr 26, 2:53 AM)
Average54 °F32%29.84 "Hg
* Reported Apr 11 8:53 PM — Apr 26 8:53 PM, Prescott, Weather by CustomWeather, © 2015

Note: Actual official high and low records may vary slightly from our data, if they occured in-between our weather recording intervals... More about our weather records

Advertising

Prescott weather history for previous 24 hours

 ConditionsComfort  
Time TempWeatherWind HumidityBarometerVisibility
8:53 PM
Sun, Apr 26
47 °FClear.9 mph50%29.85 "Hg10 mi
7:53 PM48 °FClear.12 mph50%29.82 "Hg10 mi
6:53 PM52 °FPartly sunny.16 mph41%29.79 "Hg10 mi
5:53 PM53 °FBroken clouds.8 mph47%29.78 "Hg10 mi
4:53 PM53 °FScattered clouds.21 mph45%29.76 "Hg10 mi
3:53 PM57 °FPartly sunny.15 mph44%29.75 "Hg10 mi
2:53 PM55 °FLight rain. Mostly cloudy.18 mph51%29.74 "Hg10 mi
1:53 PM57 °FBroken clouds.16 mph41%29.75 "Hg10 mi
12:53 PM50 °FLight rain. Mostly cloudy.10 mph59%29.78 "Hg7 mi
11:53 AM49 °FLight rain. Broken clouds.12 mph66%29.78 "Hg6 mi
10:53 AM51 °FOvercast.14 mph54%29.78 "Hg10 mi
9:53 AM50 °FCloudy.17 mph57%29.77 "Hg10 mi
8:53 AM48 °FPartly sunny.12 mph68%29.73 "Hg10 mi
8:02 AM45 °FBroken clouds.16 mph76%29.84 "Hg10 mi
7:53 AM45 °FPartly sunny.16 mph76%29.74 "Hg10 mi
6:53 AM43 °FMostly cloudy.10 mph82%29.71 "Hg10 mi
5:53 AM43 °FMostly cloudy.7 mph79%29.69 "Hg10 mi
4:53 AM42 °FLight rain. Overcast.7 mph82%29.67 "Hg10 mi
3:53 AM42 °FLight rain. Mostly cloudy.No wind79%29.65 "Hg10 mi
2:53 AM42 °FOvercast.3 mph82%29.65 "Hg10 mi
1:53 AM41 °FMostly cloudy.3 mph82%29.66 "Hg10 mi
12:53 AM40 °FOvercast.No wind83%29.67 "Hg10 mi
11:53 PM
Sat, Apr 25
40 °FLight rain. Mostly cloudy.6 mph83%29.69 "Hg8 mi
10:53 PM41 °FLight rain. Fog.5 mph86%29.70 "Hg6 mi
10:01 PM42 °FRain. Fog.12 mph85%29.82 "Hg3 mi
Weather by CustomWeather, © 2015

See weather overviewHow to use our weather pages